Location: Boca de Tacagua
(10.5333°N, 66.9833°W)
Time: 03:52:59
(UTC+00:00)

AO-7 - Visible Passes

Search period start: 21 March 2023 00:00
Search period end: 31 March 2023 00:00
Orbit: 1440 x 1458 km, 101.9° (Epoch: 20 March)

Date Brightness Start Highest point End Pass type
(mag) Time Alt. Az. Time Alt. Az. Time Alt. Az.
21 Mar ? 08:18:23 10° NE 08:26:09 44° ESE 08:33:52 10° S visible
21 Mar ? 10:11:54 10° NNW 10:18:25 26° WNW 10:24:57 10° WSW visible
22 Mar ? 07:23:08 10° E 07:26:17 12° ESE 07:29:24 10° SE visible
22 Mar ? 09:10:35 10° N 09:18:53 77° WNW 09:27:09 10° SSW visible
23 Mar ? 08:11:34 10° NE 08:19:06 38° ESE 08:26:34 10° S visible
23 Mar ? 10:04:31 10° NNW 10:11:25 30° WNW 10:18:20 10° SW visible
24 Mar ? 07:18:40 10° E 07:19:14 10° ESE 07:19:47 10° ESE visible
24 Mar ? 09:03:31 10° NNE 09:11:51 86° WNW 09:20:08 10° SSW visible
25 Mar ? 08:04:48 10° NE 08:12:02 33° ESE 08:19:14 10° SSE visible
25 Mar ? 09:57:12 10° N 10:04:24 34° WNW 10:11:39 10° SW visible
26 Mar ? 08:56:29 10° NNE 09:04:48 85° ESE 09:13:06 10° SSW visible
27 Mar ? 07:58:06 10° NE 08:04:59 29° ESE 08:11:50 10° SSE visible
27 Mar ? 09:49:55 10° N 09:57:25 39° WNW 10:04:54 10° SW visible
28 Mar ? 08:49:28 10° NNE 08:57:46 76° ESE 09:06:01 10° S visible
29 Mar ? 07:51:28 10° NE 07:57:55 25° ESE 08:04:22 10° SSE visible
29 Mar ? 09:42:40 10° N 09:50:23 44° WNW 09:58:08 10° SW visible
30 Mar ? 08:42:29 10° NNE 08:50:43 67° ESE 08:58:54 10° S visible
